| time (UTC) | temp F | wind direction | speed MPH | gust MPH | rain 1hr in | rain 24hr in | rain mn in | humidity % | barometer mb |
| 20260906131527 | 52 | 247 | 0.0 | 0.0 | 0.00 | 0.04 | 0.04 | 96 | 1019.4 |
| 20260906130030 | 52 | 247 | 0.0 | 0.0 | 0.00 | 0.04 | 0.04 | 96 | 1019.4 |
| 20260906124531 | 52 | 247 | 0.0 | 1.0 | 0.00 | 0.04 | 0.04 | 96 | 1019.4 |
| 20260906123103 | 52 | 247 | 0.0 | 1.0 | 0.00 | 0.04 | 0.04 | 96 | 1019.5 |
| 20260906121529 | 52 | 247 | 0.0 | 0.0 | 0.00 | 0.04 | 0.04 | 96 | 1019.5 |
| 20260906120156 | 53 | 247 | 0.0 | 1.0 | 0.00 | 0.04 | 0.04 | 95 | 1019.6 |
| 20260906114530 | 53 | 247 | 0.0 | 0.0 | 0.00 | 0.04 | 0.04 | 95 | 1019.7 |
| 20260906113032 | 52 | 247 | 0.0 | 1.0 | 0.00 | 0.04 | 0.04 | 95 | 1019.7 |
| 20260906111605 | 53 | 247 | 0.0 | 0.0 | 0.01 | 0.04 | 0.04 | 95 | 1019.7 |
| 20260906110029 | 53 | 245 | 0.0 | 1.0 | 0.02 | 0.04 | 0.04 | 94 | 1019.8 |
| 20260906103102 | 53 | 180 | 0.0 | 0.0 | 0.04 | 0.04 | 0.03 | 94 | 1020.3 |
| 20260906101528 | 53 | 209 | 0.0 | 3.0 | 0.03 | 0.03 | 0.02 | 93 | 1020.1 |
| 20260906100029 | 53 | 222 | 0.0 | 3.0 | 0.02 | 0.02 | 0.01 | 93 | 1020.1 |
| 20260906093030 | 53 | 237 | 0.0 | 2.0 | 0.00 | 0.00 | 0.00 | 93 | 1020.1 |
| 20260906091530 | 54 | 247 | 0.0 | 1.0 | 0.00 | 0.00 | 0.00 | 93 | 1019.9 |
| 20260906090103 | 54 | 247 | 0.0 | 2.0 | 0.00 | 0.00 | 0.00 | 93 | 1020.0 |
| 20260906084530 | 53 | 247 | 0.0 | 1.0 | 0.00 | 0.00 | 0.00 | 92 | 1020.0 |
| 20260906083030 | 53 | 247 | 0.0 | 2.0 | 0.00 | 0.00 | 0.00 | 92 | 1020.1 |
| 20260906081530 | 53 | 247 | 0.0 | 1.0 | 0.00 | 0.00 | 0.00 | 92 | 1020.0 |
| 20260906080103 | 53 | 247 | 0.0 | 1.0 | 0.00 | 0.00 | 0.00 | 93 | 1019.9 |
| 20260906074607 | 53 | 247 | 0.0 | 1.0 | 0.00 | 0.00 | 0.00 | 93 | 1019.9 |
| 20260906073030 | 53 | 247 | 0.0 | 1.0 | 0.00 | 0.00 | 0.00 | 92 | 1020.0 |
| 20260906070033 | 52 | 247 | 0.0 | 1.0 | 0.00 | 0.00 | 0.00 | 92 | 1020.2 |
| 20260906064531 | 52 | 247 | 0.0 | 1.0 | 0.00 | 0.01 | 0.01 | 91 | 1020.4 |
| 20260906063029 | 52 | 247 | 0.0 | 1.0 | 0.00 | 0.01 | 0.01 | 91 | 1020.4 |
| 20260906061529 | 53 | 247 | 0.0 | 1.0 | 0.00 | 0.01 | 0.01 | 90 | 1020.4 |
| 20260906060027 | 53 | 247 | 0.0 | 1.0 | 0.00 | 0.01 | 0.01 | 90 | 1020.5 |
| 20260906054532 | 53 | 247 | 0.0 | 1.0 | 0.00 | 0.01 | 0.01 | 90 | 1020.6 |
| 20260906053032 | 53 | 242 | 0.0 | 2.0 | 0.00 | 0.01 | 0.01 | 89 | 1020.6 |
| 20260906051528 | 53 | 225 | 0.0 | 1.0 | 0.00 | 0.01 | 0.01 | 89 | 1020.5 |
| 20260906050144 | 54 | 225 | 0.0 | 1.0 | 0.00 | 0.01 | 0.01 | 88 | 1020.6 |
| 20260906044532 | 54 | 225 | 0.0 | 2.0 | 0.00 | 0.01 | 0.01 | 87 | 1020.7 |
| 20260906043031 | 54 | 231 | 0.0 | 2.0 | 0.00 | 0.01 | 0.01 | 87 | 1020.6 |
| 20260906041531 | 55 | 227 | 0.0 | 2.0 | 0.00 | 0.01 | 0.01 | 87 | 1020.6 |
| 20260906040030 | 55 | 247 | 0.0 | 2.0 | 0.00 | 0.01 | 0.01 | 87 | 1020.5 |
| 20260906034532 | 55 | 247 | 0.0 | 2.0 | 0.00 | 0.01 | 0.01 | 85 | 1020.4 |
| 20260906031528 | 55 | 243 | 1.0 | 3.0 | 0.00 | 0.01 | 0.01 | 85 | 1020.0 |
| 20260906030030 | 56 | 233 | 0.0 | 2.0 | 0.00 | 0.01 | 0.01 | 85 | 1020.0 |
| 20260906023104 | 58 | 247 | 0.0 | 1.0 | 0.00 | 0.01 | 0.01 | 83 | 1019.9 |
| 20260906021601 | 59 | 247 | 0.0 | 2.0 | 0.00 | 0.01 | 0.01 | 81 | 1020.0 |
| 20260906014529 | 61 | 247 | 0.0 | 1.0 | 0.00 | 0.01 | 0.01 | 76 | 1020.0 |
| 20260906013030 | 62 | 222 | 0.0 | 1.0 | 0.00 | 0.01 | 0.01 | 76 | 1020.1 |
| 20260906011532 | 63 | 202 | 0.0 | 1.0 | 0.00 | 0.01 | 0.01 | 75 | 1020.0 |
| 20260906010106 | 64 | 218 | 0.0 | 1.0 | 0.00 | 0.01 | 0.01 | 74 | 1020.1 |
| 20260906001530 | 62 | 212 | 0.0 | 5.0 | 0.00 | 0.01 | 0.01 | 77 | 1020.5 |
| 20260905234604 | 66 | 218 | 0.0 | 4.0 | 0.00 | 0.01 | 0.01 | 69 | 1020.4 |
| 20260905233031 | 67 | 292 | 0.0 | 0.0 | 0.00 | 0.01 | 0.01 | 69 | 1020.2 |
| 20260905230104 | 66 | 292 | 0.0 | 0.0 | 0.00 | 0.01 | 0.01 | 67 | 1020.3 |
| 20260905224526 | 67 | 255 | 0.0 | 0.0 | 0.00 | 0.01 | 0.01 | 63 | 1020.2 |
| 20260905223030 | 68 | 225 | 0.0 | 1.0 | 0.00 | 0.01 | 0.01 | 61 | 1020.2 |
| 20260905221532 | 68 | 225 | 0.0 | 0.0 | 0.00 | 0.01 | 0.01 | 62 | 1020.2 |
| 20260905220116 | 69 | 225 | 0.0 | 0.0 | 0.00 | 0.01 | 0.01 | 60 | 1020.3 |
| 20260905214606 | 70 | 225 | 0.0 | 0.0 | 0.00 | 0.01 | 0.01 | 59 | 1020.3 |
| 20260905213029 | 69 | 225 | 0.0 | 1.0 | 0.00 | 0.01 | 0.01 | 59 | 1020.5 |
| 20260905211532 | 69 | 222 | 0.0 | 3.0 | 0.00 | 0.01 | 0.01 | 58 | 1020.5 |
| 20260905210103 | 69 | 257 | 0.0 | 2.0 | 0.00 | 0.01 | 0.01 | 59 | 1020.6 |
| 20260905204531 | 68 | 270 | 0.0 | 1.0 | 0.00 | 0.01 | 0.01 | 61 | 1020.7 |
| 20260905201527 | 68 | 306 | 0.0 | 4.0 | 0.00 | 0.01 | 0.01 | 61 | 1020.8 |
| 20260905200030 | 68 | 328 | 0.0 | 7.0 | 0.00 | 0.01 | 0.01 | 63 | 1020.8 |
| 20260905193030 | 68 | 317 | 0.0 | 3.0 | 0.00 | 0.03 | 0.01 | 64 | 1021.1 |
| 20260905191532 | 68 | 319 | 0.0 | 3.0 | 0.00 | 0.03 | 0.01 | 65 | 1021.3 |
| 20260905190029 | 67 | 347 | 0.0 | 4.0 | 0.00 | 0.03 | 0.01 | 67 | 1021.5 |
| 20260905184607 | 66 | 346 | 0.0 | 4.0 | 0.00 | 0.03 | 0.01 | 69 | 1021.8 |
| 20260905183102 | 65 | 331 | 0.0 | 5.0 | 0.00 | 0.03 | 0.01 | 74 | 1021.9 |
| 20260905180031 | 60 | 225 | 0.0 | 1.0 | 0.00 | 0.03 | 0.01 | 83 | 1022.2 |
| 20260905174530 | 59 | 225 | 0.0 | 1.0 | 0.00 | 0.03 | 0.01 | 85 | 1022.2 |
| 20260905173031 | 58 | 225 | 0.0 | 0.0 | 0.00 | 0.03 | 0.01 | 86 | 1022.2 |
| 20260905171529 | 57 | 225 | 0.0 | 0.0 | 0.00 | 0.03 | 0.01 | 86 | 1022.1 |
| 20260905170029 | 57 | 225 | 0.0 | 0.0 | 0.00 | 0.03 | 0.01 | 87 | 1022.2 |
| 20260905164530 | 57 | 225 | 0.0 | 0.0 | 0.00 | 0.03 | 0.01 | 88 | 1022.1 |
| 20260905163030 | 57 | 225 | 0.0 | 0.0 | 0.00 | 0.03 | 0.01 | 91 | 1022.1 |
| 20260905161644 | 56 | 225 | 0.0 | 0.0 | 0.00 | 0.03 | 0.01 | 94 | 1022.1 |
| 20260905160030 | 55 | 225 | 0.0 | 0.0 | 0.00 | 0.03 | 0.01 | 96 | 1022.1 |
| 20260905153032 | 53 | 225 | 0.0 | 0.0 | 0.00 | 0.03 | 0.01 | 97 | 1022.1 |
| 20260905151530 | 53 | 225 | 0.0 | 0.0 | 0.00 | 0.03 | 0.01 | 97 | 1022.1 |
| 20260905150027 | 52 | 225 | 0.0 | 0.0 | 0.00 | 0.03 | 0.01 | 97 | 1022.0 |
| 20260905144530 | 51 | 225 | 0.0 | 0.0 | 0.00 | 0.03 | 0.01 | 97 | 1021.9 |
| 20260905143146 | 51 | 225 | 0.0 | 1.0 | 0.00 | 0.03 | 0.01 | 97 | 1021.8 |
| 20260905141532 | 51 | 225 | 0.0 | 0.0 | 0.00 | 0.03 | 0.01 | 97 | 1021.8 |
| 20260905140030 | 50 | 225 | 0.0 | 0.0 | 0.00 | 0.03 | 0.01 | 97 | 1021.5 |
| 20260905134530 | 50 | 225 | 0.0 | 0.0 | 0.00 | 0.03 | 0.01 | 96 | 1021.4 |
| 20260905133103 | 50 | 225 | 0.0 | 1.0 | 0.00 | 0.03 | 0.01 | 96 | 1021.3 |